RH
22 16 18 26 24 28 23 15 14 10 8 12 14 14 13 11 7 5 4 4 4 5 6 7 9 11 12 12 12 12 11 11 10
26 25 19 19 26 23 25 25 17 11 10 7 10 14 15 14 13 11 9 7 6 6 6 6 6 7 9 10 11 11 10 10 11
30 32 29 23 28 36 26 26 28 24 13 8 7 9 13 15 15 13 12 12 11 10 8 7 6 6 6 7 8 9 9 9 9
20 26 41 34 26 33 48 32 25 26 28 25 12 8 8 10 13 14 16 16 15 14 13 12 10 9 8 8 8 8 8 9 9
26 28 29 35 37 34 30 42 44 32 28 28 29 23 12 8 8 9 13 14 14 16 17 16 15 14 13 11 11 10 10 10 10
34 22 30 40 42 37 30 34 43 43 41 37 31 28 29 26 17 10 8 9 11 12 14 15 16 16 16 15 14 15 15 14 12
56 42 20 36 36 40 43 34 35 28 30 29 35 38 33 30 29 29 27 13 9 9 10 10 10 10 12 14 15 15 16 15 14
33 59 46 20 33 41 47 47 46 49 40 30 29 36 41 39 36 33 29 29 22 12 11 11 11 12 12 13 13 14 16 18 16
62 61 62 32 30 38 36 28 32 45 52 58 45 33 34 39 43 44 40 37 34 29 24 20 17 14 14 14 14 15 16 18 21
57 60 74 74 37 38 39 32 31 30 40 52 57 56 46 38 39 46 48 49 48 44 41 38 35 29 23 18 17 17 18 19 22
22 21 45 84 74 64 37 33 36 44 43 41 45 61 62 60 57 51 58 61 60 58 54 55 52 44 38 35 30 27 22 21 21
17 22 15 46 61 73 88 78 58 53 56 41 34 34 36 44 47 55 56 56 63 61 65 63 64 64 57 49 47 42 37 36 35
23 19 22 21 30 38 76 93 82 78 64 61 65 49 35 48 41 50 41 47 68 74 70 62 63 73 79 74 77 66 54 47 45
37 31 24 22 40 43 32 87 82 72 55 52 57 59 47 19 18 14 13 54 74 52 66 90 84 93 93 87 79 90 94 87 78
43 26 35 30 28 37 50 70 82 69 60 39 29 37 30 19 19 16 18 16 12 21 42 53 68 80 96 92 96 92 95 95 94
26 32 46 61 34 34 23 21 41 83 72 22 22 24 22 22 25 22 20 22 24 22 18 52 92 97 96 91 90 94 82 89 100
27 16 12 9 11 35 42 32 20 21 79 56 46 39 33 18 14 16 18 23 27 28 26 21 51 94 96 95 91 90 88 86 98
36 25 15 10 8 10 34 47 39 24 38 73 46 38 30 23 18 19 20 20 26 34 33 28 20 53 86 96 78 82 80 97 100
38 32 30 21 16 11 19 51 55 41 28 23 25 21 21 22 23 26 26 28 33 36 35 32 26 31 42 34 82 84 86 94 97
35 36 32 28 24 18 18 38 59 53 42 34 25 25 26 28 30 31 35 36 37 36 31 26 60 23 50 95 91 80 88 90 92
Wind_Speed
22 21 19 18 19 18 16 15 15 14 14 13 11 9 8 9 9 9 10 11 12 13 14 14 14 14 14 14 14 14 15 16 18
27 25 21 21 22 22 20 18 17 16 16 16 16 15 13 12 12 11 12 13 13 14 15 16 16 16 18 18 18 18 18 19 19
24 26 27 24 22 23 23 22 21 20 18 17 18 18 18 17 16 16 15 15 15 16 17 17 17 18 19 20 20 21 21 22 22
21 25 27 28 25 25 25 25 24 23 23 21 19 19 20 21 21 20 19 20 19 19 19 19 19 19 20 20 21 22 22 23 23
22 24 25 28 28 27 27 29 28 26 24 24 24 22 21 21 23 24 24 24 23 23 22 22 21 22 23 23 23 24 24 25 25
25 24 27 27 28 28 29 30 30 29 27 26 26 26 26 24 24 25 25 27 27 27 27 26 26 25 25 26 25 25 27 27 27
28 25 28 26 28 29 31 31 31 31 31 30 29 28 28 28 28 29 27 28 29 29 30 29 29 29 29 29 29 28 28 28 28
34 29 28 28 29 28 31 34 35 33 34 33 32 32 31 30 30 31 31 32 31 31 31 31 31 31 32 32 32 32 32 31 29
37 36 32 29 30 31 30 31 32 34 35 34 35 35 34 34 34 33 33 33 33 34 33 33 33 33 33 34 34 34 35 35 34
39 39 36 34 33 32 33 33 32 32 33 34 35 35 36 36 37 37 36 36 36 36 36 36 36 36 36 36 37 36 37 37 38
47 43 40 36 36 37 36 36 36 35 35 35 37 36 35 37 38 39 38 39 39 39 39 38 39 39 39 40 40 40 39 40 40
50 47 44 43 41 39 38 37 38 38 37 37 38 39 37 37 38 40 39 41 42 43 43 43 43 42 42 41 43 43 44 45 45
51 52 48 48 46 44 43 42 39 40 39 36 35 35 37 37 35 37 40 40 38 42 46 46 46 46 46 46 45 46 47 48 49
50 52 52 52 50 48 47 44 44 43 41 40 38 38 36 38 37 35 37 39 39 42 45 45 46 42 43 51 54 52 51 52 55
46 49 52 54 55 52 48 47 46 47 46 44 42 41 42 43 38 39 40 41 42 43 46 49 48 49 47 48 51 57 58 56 55
51 47 47 51 57 57 56 54 53 50 50 47 43 42 42 42 39 43 45 43 44 43 44 47 46 44 45 42 42 43 47 44 51
56 54 55 55 57 61 58 58 56 55 51 52 51 47 46 44 44 47 45 44 47 48 48 47 49 47 48 44 45 48 50 45 43
62 61 59 56 56 59 62 60 58 57 56 55 56 54 52 50 46 48 49 49 52 53 49 51 50 51 52 53 53 50 48 34 33
67 63 63 61 57 58 60 61 59 58 57 55 55 54 53 52 51 49 50 54 57 56 57 52 52 52 53 52 45 43 34 26 32
68 66 65 62 59 56 58 60 59 57 57 55 51 50 51 51 52 54 55 59 59 58 54 50 47 45 44 41 34 28 26 29 33
Wind_Direction
270 269 263 261 261 258 257 258 258 256 253 250 253 255 260 269 267 265 268 271 275 280 285 288 291 296 299 302 307 310 313 315 318
265 269 269 264 261 259 258 256 258 257 257 256 252 257 259 259 262 266 270 271 273 277 281 284 287 291 295 298 301 303 306 309 309
256 260 264 266 262 257 257 258 258 259 259 257 258 256 257 262 265 265 266 267 271 274 277 282 286 289 292 294 296 299 302 305 308
264 261 262 261 260 260 262 260 260 258 260 262 262 261 261 261 263 266 268 270 272 273 275 279 283 285 287 288 291 293 295 297 301
271 268 261 262 261 258 259 262 263 264 264 264 264 265 265 265 265 267 269 271 273 274 276 277 279 282 284 286 289 292 294 296 299
265 265 263 260 262 264 264 261 262 264 267 270 272 271 271 270 271 270 270 272 274 276 278 280 280 280 282 285 287 290 293 295 298
265 265 264 261 258 257 259 265 265 265 265 267 268 270 273 275 275 275 277 277 277 277 278 280 282 284 284 285 287 288 289 292 295
266 267 267 264 260 256 257 259 262 265 265 266 267 269 269 270 273 275 277 279 279 279 279 281 283 284 286 287 287 288 289 291 292
264 268 269 266 263 262 259 259 259 261 265 268 269 269 269 270 270 272 274 277 278 279 281 282 283 284 285 286 286 287 289 292 294
262 266 269 268 265 262 264 264 263 262 263 266 266 267 267 268 270 272 273 274 274 277 279 281 283 285 285 285 286 287 288 289 291
260 264 266 264 265 268 265 265 267 268 267 267 268 267 267 267 269 271 272 274 276 277 278 280 283 283 285 286 285 286 287 287 288
260 260 263 264 265 268 267 267 266 265 265 267 268 270 268 269 271 273 273 271 273 276 276 278 280 282 282 285 286 286 288 288 288
260 263 263 261 262 266 268 267 265 265 265 264 269 273 275 275 276 277 278 274 275 277 278 276 278 280 282 282 287 286 286 286 287
260 261 262 265 265 263 264 266 263 265 263 265 267 271 274 277 280 283 283 279 277 282 279 278 280 285 289 276 274 285 283 285 289
259 259 261 261 263 263 262 261 262 263 265 269 266 270 273 277 282 282 284 281 285 283 283 281 281 282 289 290 281 276 279 278 282
259 258 256 258 261 263 263 263 263 264 265 265 269 271 276 279 281 284 283 285 288 287 287 285 287 281 284 292 286 288 290 294 285
257 259 260 261 262 263 264 264 264 265 266 268 271 272 275 278 279 281 283 284 289 290 287 283 283 281 282 288 292 285 291 293 296
257 259 261 263 262 262 264 265 265 265 265 268 273 275 277 277 277 281 283 285 288 289 287 285 282 279 281 285 289 288 287 286 280
255 257 260 261 261 262 262 264 266 266 267 268 274 277 278 281 281 281 282 282 285 287 286 283 280 279 282 285 283 279 275 269 278
254 254 254 256 259 258 260 261 264 266 267 271 272 276 277 279 282 283 283 282 286 285 286 282 283 283 280 274 269 265 265 272 282